Home   Weather   Canton   Past weeks

Flag for USA Past Weather in Canton, Ohio, USA — Yesterday and Last 2 Weeks

52 °F

Partly sunny.

Feels Like: 47 °F
Forecast: 44 / 55 °F
Wind: 14 mph from North

Location: Akron-Canton Regional Airport

Current Time: Oct 24, 2016 at 4:14:08 PM

Latest Report: Oct 24, 2016 at 2:51 PM

Visibility: 10 mi

Pressure: 30.24 "Hg

Humidity: 53%

Dew Point: 35 °F

Location of CantonLocation

Past Weather in Canton — Graph


Canton Temperature Yesterday

Maximum temperature yesterday: 65 °F (at 3:51 PM)
Minimum temperature yesterday: 41 °F (at 12:51 AM)
Average temperature yesterday: 55 °F

High & Low Weather Summary for the Past Weeks

High79 °F (Oct 17, 2:51 PM)93% (Oct 10, 5:51 AM)30.48 "Hg (Oct 10, 5:51 AM)
Low37 °F (Oct 14, 6:51 AM)39% (Oct 10, 4:51 PM)29.75 "Hg (Oct 18, 2:51 PM)
Average57 °F71%30.08 "Hg
* Reported Oct 9 2:51 PM — Oct 24 2:51 PM, Canton, Weather by CustomWeather, © 2016

Note: Actual official high and low records may vary slightly from our data, if they occured in-between our weather recording intervals... More about our weather records


Canton Weather History for the Previous 24 Hours

Scroll right to see more
Time TempWeatherWind HumidityBarometerVisibility
2:51 PM
Mon, Oct 24
52 °FPartly sunny.14 mph53%30.24 "Hg10 mi
1:51 PM52 °FPartly sunny.17 mph53%30.24 "Hg10 mi
12:51 PM51 °FPartly sunny.15 mph56%30.23 "Hg10 mi
11:58 AM51 °FMostly cloudy.17 mph66%30.21 "Hg10 mi
10:51 AM51 °FMostly cloudy.14 mph63%30.19 "Hg10 mi
9:51 AM50 °FOvercast.10 mph71%30.17 "Hg10 mi
8:51 AM50 °FMostly cloudy.8 mph71%30.15 "Hg10 mi
7:51 AM50 °FMostly cloudy.16 mph77%30.11 "Hg10 mi
6:51 AM52 °FOvercast.7 mph80%30.08 "Hg10 mi
5:51 AM53 °FMostly cloudy.8 mph77%30.05 "Hg10 mi
4:51 AM53 °FMostly cloudy.6 mph80%30.02 "Hg10 mi
3:51 AM53 °FPassing clouds.5 mph77%30.00 "Hg10 mi
2:51 AM57 °FPartly cloudy.13 mph74%29.96 "Hg10 mi
1:51 AM58 °FPassing clouds.12 mph67%29.93 "Hg10 mi
12:51 AM60 °FClear.15 mph62%29.90 "Hg10 mi
11:51 PM
Sun, Oct 23
63 °FPassing clouds.17 mph58%29.87 "Hg10 mi
10:51 PM64 °FPassing clouds.15 mph54%29.85 "Hg10 mi
9:51 PM62 °FPassing clouds.13 mph58%29.85 "Hg10 mi
8:51 PM62 °FOvercast.12 mph56%29.86 "Hg10 mi
7:51 PM61 °FPassing clouds.13 mph58%29.86 "Hg10 mi
6:51 PM61 °FPassing clouds.10 mph58%29.88 "Hg10 mi
5:51 PM62 °FPassing clouds.9 mph56%29.89 "Hg10 mi
4:51 PM65 °FPassing clouds.15 mph49%29.90 "Hg10 mi
Weather by CustomWeather, © 2016

See weather overviewHow to use our weather pages